Wind_Speed
3 5 6 7 6 6 9 10 10 10 12 10 6 3 2 5 8 14 14 16 13 14 15 12 12 14 12 4 2 7 2 4 4 2 6 9 8 7 8 7 13 16 14
4 6 6 6 5 5 6 8 9 10 11 12 11 13 11 11 14 15 16 13 11 10 11 12 9 7 7 6 6 5 8 6 5 8 10 7 7 10 8 9 11 14 14
9 5 9 3 3 2 4 7 8 9 9 10 12 11 11 14 17 18 20 21 22 22 21 18 15 11 12 14 17 19 13 7 1 7 6 6 8 11 13 11 8 9 9
13 7 5 4 3 5 5 5 7 8 11 14 15 15 15 14 18 19 18 16 16 16 15 15 16 15 12 8 10 14 16 13 12 1 6 5 3 10 12 15 11 8 9
13 12 9 7 6 9 8 7 11 11 14 16 16 16 15 14 12 11 11 9 7 6 5 5 6 8 8 6 3 4 5 7 5 3 8 4 5 10 10 9 10 11 9
14 17 14 14 12 14 12 13 13 14 16 16 16 14 13 15 11 11 11 12 12 13 14 13 11 9 8 7 8 6 3 2 5 6 2 9 11 6 5 3 15 12 4
11 18 20 19 16 16 16 21 22 22 21 18 15 12 12 11 9 8 10 12 12 12 13 11 11 11 14 10 6 10 12 12 8 11 21 15 13 11 8 11 10 8 5
2 16 21 21 22 26 26 28 27 24 21 18 15 14 12 11 8 12 14 15 15 15 12 11 11 11 12 13 17 20 22 22 20 19 17 16 12 9 7 9 8 7 8
5 8 17 23 30 29 27 25 24 25 22 19 18 17 17 17 14 16 18 20 20 17 16 16 16 17 13 13 16 20 22 21 18 17 16 14 11 10 9 6 10 7 5
16 19 26 30 32 32 29 26 23 22 21 18 19 18 20 19 16 13 12 17 21 22 21 21 19 16 16 16 17 17 19 13 10 10 12 13 13 13 12 11 8 10 7
16 22 26 30 32 32 29 25 24 22 21 20 21 21 21 21 16 16 16 19 20 21 21 21 19 14 15 15 13 12 11 9 10 11 11 12 12 12 12 12 10 3 2
20 24 26 29 29 27 28 24 22 22 24 24 22 22 20 19 17 18 16 15 16 19 20 17 14 11 10 10 11 10 6 7 7 8 9 11 8 6 7 4 4 3 4
26 26 27 28 26 25 28 27 26 24 25 21 21 21 19 19 18 16 16 15 14 17 16 15 15 14 14 14 12 11 9 8 11 13 10 9 7 7 6 7 4 5 3
29 27 27 27 26 27 27 24 25 24 21 21 20 19 17 16 18 18 18 16 18 18 17 14 11 11 12 11 10 9 11 12 11 10 9 7 6 6 6 7 5 6 7
26 27 26 25 29 32 30 27 25 21 18 19 16 15 15 13 12 13 12 10 11 9 7 5 4 3 4 4 5 10 10 9 10 12 7 10 11 9 9 9 5 6 6
26 24 23 25 27 30 31 29 23 20 17 16 14 13 14 14 13 12 10 10 7 8 13 16 15 12 10 11 12 8 11 14 10 11 11 10 10 11 10 12 8 4 7
30 28 27 27 26 27 28 28 24 19 17 16 14 14 15 17 15 13 10 7 9 13 13 12 9 6 8 13 13 12 12 13 10 9 10 8 8 9 10 12 10 7 7
20 22 23 24 26 26 27 25 23 21 19 16 14 15 16 14 12 12 11 8 7 15 12 12 11 11 12 10 9 8 8 7 10 5 9 10 11 11 12 12 10 4 6
21 19 18 18 18 20 21 20 18 20 19 19 16 14 12 11 10 10 10 9 11 12 11 9 7 5 4 6 5 5 6 5 3 7 11 11 11 10 12 11 11 11 5
14 17 17 15 17 18 18 18 21 21 19 15 13 12 11 7 4 4 5 11 11 10 10 6 9 4 4 5 4 4 10 5 4 9 9 10 11 11 12 11 10 12 13
18 15 12 10 12 9 11 13 14 23 18 15 12 13 7 5 3 12 11 8 7 7 5 2 2 3 9 6 3 5 6 8 9 6 5 7 9 12 10 6 7 10 12
13 12 10 16 11 11 13 11 9 12 22 14 9 9 10 6 14 11 9 8 7 5 4 2 4 5 5 4 3 1 6 8 6 4 3 8 8 11 8 7 11 12 6
5 14 15 14 12 12 11 7 8 9 17 14 14 14 8 9 9 9 8 8 5 5 2 2 3 9 8 6 6 4 5 8 5 1 4 8 4 8 8 7 12 10 10
3 6 19 17 13 15 14 10 9 6 14 15 16 12 13 8 10 8 6 5 4 4 5 6 4 3 3 3 5 3 1 1 4 8 8 3 2 2 5 12 6 8 9
11 3 13 19 18 18 17 14 14 13 12 8 14 12 11 10 9 7 10 7 4 2 10 7 3 4 3 2 2 4 5 7 6 5 4 3 2 2 7 7 6 10 11
8 11 6 10 15 16 19 17 15 18 15 12 11 13 11 10 9 13 11 8 6 10 9 3 2 1 1 2 5 4 4 3 4 5 4 4 3 3 4 6 7 9 11
Wind_Direction
178 151 114 101 63 58 54 61 59 56 55 72 111 125 132 172 188 190 196 186 175 172 183 175 166 182 216 240 275 226 143 132 153 136 150 159 161 184 197 193 211 216 204
179 166 158 126 72 54 57 64 63 61 58 61 93 99 110 126 130 137 131 140 150 155 130 154 127 164 107 83 56 236 130 87 154 151 167 182 190 200 178 206 201 196 194
165 159 189 200 160 54 78 65 81 82 80 86 84 96 89 92 110 120 127 126 119 110 103 100 92 97 102 84 64 55 53 22 150 175 154 160 148 170 166 160 166 160 161
167 145 155 176 186 184 117 91 94 88 95 100 104 102 100 105 110 117 115 103 95 93 93 86 77 78 81 82 73 49 46 26 14 146 108 110 209 165 166 158 149 137 134
170 165 162 138 145 142 135 121 105 96 101 105 106 99 95 97 100 110 116 121 135 136 118 107 100 90 91 89 72 20 18 25 351 102 131 154 199 194 191 189 172 151 141
175 177 158 148 130 123 122 113 115 117 111 105 104 104 103 101 97 99 108 113 114 118 119 115 117 121 94 87 80 63 0 302 261 243 123 116 82 107 106 150 153 158 143
175 163 159 144 136 130 124 115 115 111 116 109 100 101 103 114 111 100 107 109 108 104 102 97 98 105 104 102 112 117 89 68 56 161 126 104 81 77 97 86 79 100 110
205 168 161 153 132 124 123 117 116 113 108 100 89 86 96 96 118 112 116 114 113 114 115 104 99 115 134 112 108 96 87 81 83 94 101 93 87 77 77 85 75 90 108
12 174 162 154 133 131 125 122 119 116 109 102 98 94 99 102 115 142 132 120 113 107 107 105 110 107 102 104 102 95 87 83 81 80 84 85 78 72 77 115 62 75 81
76 123 140 140 138 129 129 128 127 118 108 107 103 95 95 102 121 121 127 126 117 112 103 96 93 106 112 104 99 98 93 82 66 69 72 66 62 61 59 61 64 47 22
102 124 129 130 129 134 131 129 125 116 111 106 102 94 89 91 106 123 120 118 119 112 103 94 91 101 102 100 97 85 79 94 80 71 73 73 88 70 47 35 39 35 241
103 102 114 122 126 130 127 117 111 114 109 106 101 93 86 85 88 93 100 107 121 108 92 88 87 88 95 85 75 72 54 49 52 56 74 93 77 38 24 68 80 57 14
93 85 94 104 110 111 110 111 112 113 112 109 103 95 92 91 94 96 101 106 104 99 92 84 82 80 77 78 73 63 47 56 69 71 70 67 73 67 68 63 56 23 323
92 89 90 88 91 95 97 103 107 108 109 111 106 104 103 98 100 102 105 106 103 101 101 94 93 88 79 80 74 65 58 52 56 50 44 45 47 42 52 30 14 357 349
95 97 92 93 96 96 93 94 96 96 103 107 110 116 115 108 108 109 107 107 103 94 101 98 77 85 82 76 92 76 77 48 38 40 46 58 44 40 20 8 1 355 3
102 101 100 98 98 99 98 92 88 92 94 94 100 110 113 109 111 113 111 113 101 88 93 85 76 65 59 61 70 93 60 36 44 29 49 45 35 26 11 2 11 16 44
114 114 111 110 113 112 110 109 105 96 92 90 94 100 105 108 111 115 116 113 113 109 100 100 97 98 81 78 69 61 43 36 45 49 32 28 30 23 4 359 7 80 33
128 131 130 130 126 126 124 120 112 108 104 97 100 108 112 110 106 106 106 103 103 118 110 102 87 74 80 69 54 37 12 18 6 32 33 43 29 15 3 1 13 20 358
132 140 145 148 152 145 146 144 144 129 120 113 111 119 128 122 105 82 65 76 105 113 136 133 130 107 56 27 45 18 343 301 42 23 45 30 16 8 356 3 1 3 316
168 129 128 141 164 177 181 175 162 151 143 140 140 147 151 161 170 129 74 90 86 81 87 119 142 121 142 99 48 1 347 337 141 76 49 22 10 359 354 357 360 354 349
133 134 146 155 115 104 111 111 100 154 154 162 166 182 183 215 291 131 114 107 93 84 93 123 66 136 145 125 69 1 357 119 110 89 49 10 4 357 356 10 338 329 331
173 171 155 134 126 128 133 139 150 144 149 134 126 155 162 100 127 120 116 115 114 122 81 132 48 47 154 68 95 326 350 137 114 105 43 4 325 349 350 350 340 338 10
56 171 174 163 148 149 163 165 164 156 161 156 143 152 167 133 141 127 132 125 131 140 115 173 68 92 84 53 20 339 118 123 117 74 346 341 323 7 1 339 341 7 21
276 243 186 173 173 177 182 180 168 145 166 171 174 170 160 144 155 151 151 135 176 210 178 148 142 72 28 12 6 71 59 233 310 323 324 306 263 344 348 341 19 11 354
357 42 184 182 189 192 191 194 187 180 173 164 174 171 173 165 158 161 169 164 217 200 152 153 103 20 348 25 327 312 315 315 322 340 343 328 180 29 16 6 0 349 339
333 323 151 179 208 214 212 210 208 183 184 190 187 177 175 183 197 190 183 184 212 179 167 146 120 162 212 260 356 356 347 354 7 6 350 152 133 108 337 338 347 334 333
Height
781 782 782 784 784 783 782 781 779 778 777 776 777 778 779 780 782 785 788 792 795 799 803 806 809 813 816 814 813 814 813 812 815 817 818 821 822 823 825 827 828 830 832
782 782 783 784 785 784 784 783 782 781 781 780 779 781 782 783 784 787 789 793 796 800 802 804 806 807 809 812 813 813 811 810 813 815 816 818 820 823 825 826 827 828 828
780 781 783 784 784 785 785 785 784 784 785 785 784 785 785 788 788 791 793 796 799 801 802 803 806 805 808 811 812 810 810 812 813 813 815 818 821 823 825 825 827 828 829
778 780 782 784 784 785 786 787 787 788 788 789 789 791 792 794 795 796 797 798 801 803 804 805 806 807 809 811 811 811 813 815 815 816 818 821 822 825 826 826 828 829 831
777 779 781 782 783 785 787 788 789 791 792 793 795 796 797 798 799 800 800 802 803 804 805 806 808 810 812 812 813 814 816 816 819 819 820 821 823 825 827 827 827 829 832
774 777 779 781 783 785 787 789 792 793 796 797 798 799 800 801 803 803 804 805 807 807 808 809 810 812 812 813 815 816 817 817 817 818 819 821 823 826 826 827 826 829 832
772 773 777 781 783 786 789 790 793 795 797 799 801 802 803 804 805 806 807 808 809 810 811 812 811 812 814 816 817 818 817 816 815 814 818 823 826 827 827 826 828 830 831
772 774 777 779 782 786 789 792 795 797 799 801 803 804 805 806 807 808 809 810 811 813 813 815 816 816 818 819 819 818 818 819 821 820 823 825 826 828 828 829 830 831 833
770 772 775 778 782 784 790 794 798 798 801 803 805 806 806 808 809 809 810 811 814 817 818 818 818 819 821 821 820 821 822 824 827 827 827 827 828 828 829 829 830 831 833
772 772 774 777 780 785 791 794 799 801 803 806 807 809 809 809 812 813 814 814 815 817 820 821 822 822 823 824 825 824 825 828 830 829 829 830 829 829 829 830 831 833 836
776 775 776 779 782 786 791 796 799 802 805 809 811 813 813 812 814 815 816 817 820 821 823 825 826 826 826 827 828 829 830 830 830 829 830 830 830 830 829 831 831 833 836
781 781 781 782 787 792 793 798 802 805 808 813 816 816 818 817 818 819 821 822 823 824 827 828 831 830 830 831 832 833 834 831 830 830 830 832 831 832 832 833 833 832 834
787 787 789 789 794 797 797 799 806 810 811 816 818 820 822 823 822 825 826 827 828 829 831 832 833 834 834 834 835 835 836 835 834 834 835 835 834 835 833 834 835 834 833
793 795 797 797 801 802 804 809 811 813 817 819 820 822 825 827 827 828 829 832 832 833 834 835 836 837 838 837 838 838 838 838 837 836 836 836 837 836 835 834 834 835 835
799 802 805 808 809 808 812 815 817 820 822 822 824 826 827 830 831 832 833 835 836 837 837 838 839 840 841 840 841 840 841 841 839 838 837 838 838 838 836 836 835 836 835
804 808 811 812 815 816 818 821 825 825 826 827 827 828 829 830 833 835 836 837 838 838 839 840 841 842 842 842 843 843 842 841 840 840 840 839 839 839 838 837 835 835 834
809 812 815 817 820 822 824 825 827 830 830 830 830 831 832 833 835 837 838 838 839 841 842 843 843 844 844 844 844 843 843 843 842 842 841 841 840 839 839 837 836 835 835
814 816 819 821 823 825 826 827 829 830 831 833 834 835 836 838 838 839 839 840 841 842 843 844 845 845 846 845 845 845 845 844 844 843 842 841 841 840 839 838 837 836 835
816 819 821 823 824 826 827 829 830 831 834 834 837 838 839 840 840 840 841 842 843 843 844 845 846 846 846 846 846 845 845 845 844 844 843 842 842 841 840 838 837 836 836
818 820 821 823 824 826 827 828 830 831 835 836 838 839 841 841 842 842 843 844 844 845 845 846 846 846 846 847 846 846 844 843 844 844 844 843 843 842 840 839 838 837 836
819 820 822 824 826 826 828 829 829 831 834 836 837 838 839 840 841 842 843 844 845 846 846 847 847 846 846 847 846 846 845 844 843 844 844 844 843 842 840 839 838 837 836
818 820 822 824 825 827 828 829 830 831 832 834 835 836 839 841 841 842 843 845 846 846 847 847 847 847 847 846 846 846 845 844 844 843 844 844 843 842 841 839 838 837 835
817 818 820 821 823 826 828 829 829 830 832 833 835 837 839 840 841 842 843 845 845 846 846 847 847 847 847 846 845 844 844 844 844 844 843 842 841 841 840 839 838 836 835
817 817 817 819 821 824 825 827 828 829 830 831 833 835 837 838 839 841 842 844 845 845 845 845 845 846 846 845 845 845 844 843 843 842 841 840 840 840 839 839 837 836 835
816 814 815 817 818 820 822 823 824 827 828 830 831 832 834 835 837 838 840 842 843 843 843 843 844 845 845 844 844 843 842 842 840 840 839 838 838 839 839 838 836 835 834
816 816 815 816 818 818 818 819 821 824 825 826 828 829 831 832 834 835 837 838 840 840 841 841 842 842 843 843 842 841 840 840 839 838 838 837 838 838 838 837 836 834 833